Terug naar catalogus

STARLINK-4190

ActiefCommunicatieVLEO
NORAD 53001·PAYLOAD·🇺🇸 United States

Gelanceerd Jul 7, 2022 vanaf Cape Canaveral Space Force Station

Loading…

Volgende Passages (komende 24 uur)

TLE

VersSource: CelesTrak SupGP

Epoch: Sep 14, 2026, 20:44 UTC

1 53001C 22076R   26257.86437500 -.00018963  00000+0 -54256-3 0  2571
2 53001  53.1577 310.1553 0001174  84.7130  17.5006 15.35407719    15

Volg STARLINK-4190 in realtime met AllMySat

Download on the App Store